Location: Bremen
(53.0793°N, 8.8017°E)
Time: 19:47:07
(UTC+01:00)

Tiros 1 - Pass Details

Date: 07 December 2021
Orbit: 629 x 664 km, 48.4° (Epoch: 18 January)

Event Time Altitude Azimuth Distance (km) Brightness Sun altitude
Rises 17:41:47 0° 213° (SSW) 2,910 11.4 -13.0°
Reaches altitude 10° 17:44:31 10° 197° (SSW) 2,009 10.2 -13.4°
Maximum altitude 17:47:59 21° 149° (SSE) 1,421 8.8 -13.9°
Enters shadow 17:50:22 15° 111° (ESE) 1,730 8.9 -14.2°
